Theta_e
312 312 312 312 311 311 311 311 311 311 311 311 312 312 312 312 312 312 313 314 315 315 315 315 316 315 315 307 304 313 316 319 316 311 307 306 305 307 303 305 307 307 310 313 314 315 316
311 311 311 311 312 311 311 311 311 311 311 311 311 311 312 312 312 312 313 314 314 314 315 316 317 314 313 301 311 313 313 313 313 310 308 307 304 308 306 305 305 308 309 309 311 312 314
311 311 311 311 311 311 310 311 311 311 311 312 312 311 311 311 311 312 313 313 314 314 315 317 317 316 311 303 312 314 313 311 312 310 306 309 308 304 306 304 308 307 303 305 308 310 310
310 310 310 310 310 310 310 310 310 310 311 311 312 311 310 310 311 312 312 313 313 314 316 318 316 316 305 310 313 310 312 310 311 312 310 311 310 305 303 304 303 301 303 298 305 307 309
310 310 310 310 310 310 310 310 310 310 311 310 311 311 310 310 311 311 312 312 314 316 317 316 315 313 303 311 306 309 310 306 308 309 309 310 308 303 303 297 295 297 294 298 300 307 306
310 311 310 310 310 311 310 310 310 310 311 311 311 310 310 310 311 311 311 311 316 315 316 317 314 305 306 301 307 308 310 309 305 306 305 304 304 300 300 297 289 293 294 297 297 303 305
311 310 310 311 311 311 311 311 310 311 311 311 311 311 310 310 310 311 311 314 309 309 309 303 303 301 302 307 309 306 308 305 306 303 298 302 296 295 298 299 299 297 295 294 299 304 303
312 312 312 312 312 311 311 312 311 311 311 311 311 310 310 309 310 311 312 307 306 307 299 306 304 303 305 306 300 303 307 301 300 296 299 297 294 298 299 298 296 295 293 294 298 301 302
312 312 312 311 311 311 311 311 311 311 311 311 309 310 309 310 310 311 310 308 313 312 301 301 303 302 303 304 300 301 304 301 297 295 296 293 296 299 297 295 294 294 293 293 293 298 301
311 311 311 311 311 311 310 310 310 310 310 309 310 309 310 309 307 313 309 312 314 313 296 296 299 302 303 303 299 304 305 301 298 294 295 294 298 296 294 293 295 291 297 295 294 292 289
311 311 311 311 311 310 310 309 309 310 310 310 310 310 309 306 313 310 311 315 314 311 287 296 298 307 304 299 300 300 304 301 295 295 295 292 294 294 293 294 297 293 297 295 295 292 292
311 311 311 311 311 310 310 310 310 310 309 310 310 309 308 308 314 313 315 315 310 295 285 293 298 297 298 300 299 301 300 303 301 296 297 296 300 298 296 298 299 298 295 295 294 292 285
310 310 311 311 311 311 310 310 310 310 309 310 310 308 309 314 311 315 315 308 295 289 296 292 293 297 296 296 295 296 295 295 293 289 289 294 295 297 299 295 299 296 291 284 282 284 283
310 310 310 311 311 311 311 310 310 309 309 309 308 306 310 315 318 316 312 301 286 291 292 297 296 296 293 294 294 294 294 292 295 293 290 287 285 293 297 295 293 293 292 284 277 280 283
310 310 310 310 310 311 311 310 309 309 308 308 306 315 314 317 318 314 303 293 292 293 293 293 295 292 292 294 294 294 293 292 294 295 289 288 287 296 297 298 297 293 291 294 285 288 283
310 310 310 310 310 311 311 310 310 309 308 307 308 310 312 315 317 310 300 293 294 296 295 296 291 292 290 292 292 293 292 294 292 296 297 292 286 293 296 298 298 296 297 287 288 280 278
310 310 310 310 310 310 311 311 310 309 307 306 309 303 311 317 313 304 295 294 294 297 296 294 293 292 293 292 293 292 292 295 296 295 297 295 291 290 294 292 292 292 291 291 291 288 282
310 310 310 310 310 310 310 310 310 308 306 307 307 299 313 312 300 303 296 294 294 295 299 296 297 295 292 293 291 291 291 294 299 297 291 296 292 287 289 296 298 296 293 292 284 283 289
310 310 310 310 311 310 310 310 309 308 306 306 301 302 312 309 296 297 298 296 295 295 297 295 293 295 296 292 289 293 294 298 298 297 293 296 290 284 286 291 294 291 294 293 293 291 287
310 310 310 310 310 310 309 308 307 307 306 306 302 297 303 306 302 295 295 295 292 296 296 297 295 296 294 293 295 292 293 296 298 297 299 298 292 286 284 286 288 286 290 293 292 287 288
310 310 310 310 310 309 307 307 307 305 304 306 304 299 299 294 296 296 297 296 292 292 296 297 294 293 292 289 292 290 294 295 297 299 298 294 288 291 291 292 291 291 291 291 289 291 288
310 310 310 310 308 307 306 307 306 305 304 305 299 297 299 296 299 296 293 294 293 293 294 293 293 294 292 290 291 289 292 292 292 298 296 296 288 291 289 292 292 290 292 292 292 292 292
309 309 309 308 307 305 305 306 306 306 305 300 301 300 295 295 296 295 294 292 292 293 294 296 295 293 293 295 298 299 298 299 297 293 293 290 289 288 284 290 291 286 291 292 292 294 293
309 309 307 306 304 303 304 305 305 306 305 305 305 301 292 292 294 293 294 293 291 292 290 295 296 293 299 303 302 302 301 300 299 298 298 289 289 288 285 288 279 291 297 296 295 296 298
308 307 305 304 303 303 302 302 304 304 306 304 307 303 293 288 294 293 295 294 295 295 293 295 297 299 304 301 295 293 297 296 296 299 297 295 289 286 284 284 287 290 293 293 290 293 299
305 303 302 302 302 302 302 302 303 303 304 304 306 306 302 289 293 297 294 295 291 291 294 296 300 305 301 296 293 287 287 289 289 292 299 295 292 286 286 281 279 289 295 296 297 288 299
303 302 301 301 301 302 302 302 302 303 303 304 304 311 301 295 297 296 295 293 294 293 291 294 295 298 301 294 290 289 288 293 287 287 288 291 289 285 285 283 288 294 295 295 285 290 299
301 301 300 300 300 301 301 301 302 302 302 302 303 308 302 297 299 300 300 295 294 294 289 295 294 294 296 292 291 290 290 292 290 293 291 289 286 287 287 285 283 299 293 287 294 298 296
300 300 300 300 300 300 301 301 301 302 302 302 298 305 310 300 298 304 303 304 302 299 295 294 294 293 295 292 294 294 290 294 292 286 297 289 292 286 286 289 299 299 296 299 298 295 297
Wind_Speed
14 15 15 15 15 15 16 16 17 17 17 17 17 17 18 18 18 19 19 19 19 19 19 16 13 12 13 8 9 9 7 11 13 9 7 10 13 16 24 23 25 33 29 28 28 25 25
14 15 15 15 15 15 16 16 17 17 17 17 18 18 18 18 19 19 18 16 16 17 17 18 13 12 10 0 3 2 6 7 7 10 9 8 11 15 21 23 27 25 27 31 30 28 28
15 15 16 16 16 17 17 18 18 18 18 17 17 18 19 19 20 20 19 18 16 17 15 14 10 11 14 8 4 5 6 5 4 7 9 11 10 15 11 17 25 25 28 29 29 26 32
15 15 16 16 17 17 18 19 20 19 19 18 17 17 18 19 19 19 19 19 19 16 12 9 7 12 3 2 7 5 8 8 2 6 10 11 12 16 19 19 25 23 21 26 33 27 29
16 16 16 16 17 17 18 19 20 21 21 21 19 19 21 21 20 20 20 20 17 6 6 7 9 12 4 7 3 10 9 8 12 10 7 8 13 14 14 17 18 21 25 28 29 29 29
16 17 18 18 18 17 19 20 20 20 21 22 20 20 20 21 21 21 22 22 5 7 10 11 10 9 6 6 9 11 7 11 11 12 14 13 12 14 14 13 20 20 26 29 30 28 26
17 17 18 19 20 20 20 20 21 21 22 23 23 21 20 20 21 20 18 7 8 10 13 12 10 8 6 9 10 11 7 7 11 11 14 10 12 14 16 17 20 22 25 31 30 24 25
17 17 17 19 20 20 20 20 20 21 21 23 23 24 23 21 20 21 13 6 6 7 10 11 9 7 6 6 10 9 3 14 14 14 15 14 16 15 15 18 23 22 25 28 26 28 27
16 17 18 19 19 18 21 20 21 21 21 21 24 22 22 20 17 12 6 6 6 7 8 4 4 8 5 7 11 13 8 14 13 16 13 15 17 19 19 20 20 20 22 23 27 23 26
17 18 19 18 18 19 22 22 22 23 24 25 23 23 19 16 8 2 3 4 8 4 8 11 8 4 8 8 12 5 11 8 12 16 16 15 16 16 15 19 18 22 20 21 21 21 23
18 18 18 17 18 19 21 24 24 23 23 26 25 23 15 8 10 3 7 8 8 6 6 5 5 6 7 9 9 4 2 11 15 17 17 17 19 20 22 22 21 22 19 23 23 22 25
17 18 18 18 19 20 20 21 22 23 24 26 25 22 10 7 7 6 7 6 7 9 1 5 1 6 11 11 7 9 11 12 18 17 18 17 14 22 15 18 26 21 21 25 24 20 22
17 18 18 18 19 20 22 21 23 24 25 27 26 18 9 8 5 5 7 8 8 8 7 3 6 11 14 11 10 4 12 12 10 10 15 16 14 4 5 14 17 24 21 15 18 19 19
17 17 17 18 19 19 21 23 24 25 26 29 27 15 8 5 5 6 8 11 5 4 6 9 10 17 13 7 7 7 11 13 5 7 13 9 16 11 2 11 19 16 22 14 18 16 19
17 18 19 20 20 19 20 21 24 26 27 29 31 7 7 4 4 6 10 8 5 11 7 10 14 9 8 4 6 13 9 8 8 9 10 13 12 24 19 8 16 19 16 19 18 24 17
17 18 19 19 19 19 20 20 21 24 27 29 9 7 2 1 5 7 10 10 9 2 8 8 14 4 12 14 14 11 10 2 6 11 7 15 21 17 13 9 13 15 11 10 13 21 22
16 18 18 18 19 19 20 21 20 23 27 31 6 6 7 2 5 8 7 9 8 6 8 7 11 15 15 15 15 15 16 13 7 10 16 19 16 18 20 14 16 12 16 8 10 15 13
16 17 18 19 19 19 20 20 20 21 24 13 6 5 5 3 6 3 7 7 5 9 4 7 10 12 12 12 15 16 18 13 12 12 17 19 8 15 21 23 12 17 15 11 5 10 19
16 17 18 18 18 18 18 16 18 19 18 11 8 6 5 4 3 7 10 11 5 9 10 4 7 11 14 15 11 13 16 14 13 16 5 9 7 11 15 7 11 12 20 10 7 11 21
16 17 18 18 17 16 17 18 18 20 19 11 6 5 4 1 2 6 11 10 8 1 9 7 9 15 14 15 14 11 18 12 12 13 13 11 15 16 16 22 7 10 17 15 15 13 19
17 17 17 17 15 15 17 17 17 20 21 10 3 5 6 5 7 11 11 14 10 11 3 8 7 8 11 13 19 20 18 21 20 18 14 4 9 19 21 22 19 23 20 15 18 20 22
16 17 17 16 15 17 16 16 16 17 25 5 7 6 9 11 9 8 3 10 10 9 13 15 17 15 11 18 15 25 22 20 12 13 8 4 8 15 21 21 21 22 21 18 19 21 27
16 16 15 14 15 16 15 15 16 15 15 3 5 4 6 8 8 8 5 7 10 11 11 10 18 17 19 19 18 20 20 22 21 12 13 6 7 12 18 20 17 18 19 18 18 21 24
15 14 14 15 15 15 15 15 14 12 10 3 3 2 3 8 10 9 15 12 14 12 17 19 18 19 16 20 22 24 23 22 14 10 10 4 10 9 11 13 12 10 11 15 16 18 14
14 15 16 15 15 14 15 14 13 13 11 7 3 4 2 7 11 16 8 12 15 12 15 17 14 11 14 17 12 12 1 6 8 13 12 8 2 5 5 7 15 22 13 9 9 20 19
14 14 15 14 14 14 14 14 14 13 10 9 5 4 3 4 8 17 18 13 9 11 14 7 11 12 10 6 7 6 4 6 5 8 6 7 7 4 5 6 5 2 9 7 8 18 9
13 14 14 14 14 14 14 14 13 13 11 8 7 5 5 8 10 7 11 12 9 8 8 12 8 7 1 4 3 4 6 9 5 5 6 7 3 8 11 9 8 9 9 8 7 6 15
12 13 14 14 14 14 14 13 13 13 13 9 8 8 6 8 16 22 19 13 9 8 9 8 9 2 7 4 4 4 4 5 4 11 10 4 3 3 4 6 1 13 6 4 10 18 16
13 13 15 14 15 13 14 15 13 13 13 11 9 9 3 7 13 22 24 23 24 22 8 4 6 8 4 4 5 6 5 5 10 6 9 4 4 3 3 6 18 14 12 14 13 16 19
Wind_Direction
6 4 2 1 358 356 353 349 348 347 345 342 339 336 334 332 328 325 323 323 320 316 314 306 305 303 292 215 50 118 215 224 259 285 277 278 262 254 248 244 245 243 247 249 252 256 261
6 5 3 1 358 355 351 347 347 345 344 343 341 338 334 331 328 324 321 317 313 310 306 298 303 301 254 197 323 311 318 294 267 306 314 271 271 271 280 268 252 258 252 252 254 252 249
7 5 3 0 358 355 351 347 345 343 340 338 337 337 334 332 329 325 321 319 312 301 292 280 286 276 275 43 315 324 295 310 312 297 292 311 309 274 271 254 248 262 264 266 261 244 248
7 6 4 1 358 357 355 351 347 344 341 338 336 335 333 329 326 322 319 315 309 295 268 252 252 267 302 84 339 336 315 320 294 244 262 282 288 281 272 271 276 278 265 251 242 247 249
4 3 1 358 357 356 353 351 348 345 342 339 337 336 334 330 327 322 318 311 305 253 207 211 229 230 179 135 308 338 313 319 315 292 285 259 273 275 268 248 254 244 251 248 256 243 238
2 359 357 355 354 354 351 350 346 344 342 338 335 333 331 328 324 319 316 298 239 191 205 208 258 248 196 350 337 304 287 302 298 301 282 234 260 249 243 235 248 255 244 247 253 256 246
1 359 357 356 354 353 351 349 346 343 340 338 335 332 328 325 321 313 314 224 209 198 224 296 318 292 291 340 296 308 10 297 278 265 272 285 286 259 277 283 280 281 274 277 278 275 244
2 360 358 356 354 353 348 346 343 341 339 338 335 331 326 322 315 309 292 347 39 342 297 272 257 264 270 307 292 322 277 309 304 295 299 275 253 262 260 269 278 279 279 273 275 271 279
2 359 358 357 352 349 349 348 344 341 337 336 335 331 322 315 315 287 304 28 330 324 264 135 224 242 262 254 307 300 304 305 284 287 295 295 300 308 289 274 270 271 266 274 282 287 274
2 360 358 354 351 349 349 348 345 342 338 335 329 332 321 311 289 338 196 3 297 336 269 133 190 152 229 296 271 324 284 284 282 289 300 290 290 270 274 269 269 271 269 273 276 268 260
360 358 356 350 352 351 346 347 344 340 335 331 332 333 324 263 323 269 7 325 329 233 265 111 144 59 253 270 314 277 357 275 278 295 293 293 293 285 278 276 279 276 277 275 267 263 267
355 353 350 347 343 342 339 337 339 338 332 329 333 334 332 186 234 19 326 334 245 231 352 163 271 256 291 300 290 277 276 240 250 257 257 277 337 287 311 330 298 289 282 271 262 258 251
349 347 347 345 340 335 335 335 335 334 333 329 331 328 279 306 3 345 317 254 241 279 117 110 324 314 311 292 306 300 308 294 299 321 307 314 306 238 248 321 292 255 258 260 250 241 253
346 345 343 340 336 337 332 332 334 334 334 329 324 321 195 296 312 308 279 256 304 321 336 1 311 302 273 360 317 300 295 290 308 285 305 336 307 325 318 289 301 282 251 244 262 260 257
344 344 341 338 335 336 333 333 333 334 334 330 313 210 233 113 303 289 271 260 318 10 2 323 308 300 331 269 249 290 298 330 320 348 319 304 307 318 299 280 296 276 251 254 270 281 269
340 341 338 335 335 336 336 333 334 334 334 329 311 275 172 344 266 276 258 268 293 18 310 303 295 307 315 321 310 320 311 25 277 279 292 294 294 303 295 287 246 252 282 260 237 261 262
338 336 337 336 335 335 335 335 336 337 337 320 255 269 91 308 267 245 275 315 335 340 315 301 317 309 306 316 308 309 304 309 334 331 311 301 296 290 291 262 278 247 245 184 263 230 273
333 332 336 335 334 335 336 337 337 340 340 323 294 277 86 300 256 206 264 12 319 284 259 268 286 305 299 318 308 300 297 310 314 326 312 306 288 286 279 283 216 263 266 314 234 290 264
327 330 333 333 336 338 339 341 341 343 351 324 308 292 132 273 311 330 317 309 266 290 292 311 278 295 302 300 298 281 296 311 311 314 329 1 284 304 291 245 32 354 311 281 284 270 263
328 331 331 336 340 347 359 350 349 343 341 317 289 296 163 134 148 302 325 310 314 227 288 295 310 295 288 291 296 276 289 302 298 286 287 294 260 257 271 290 233 232 231 254 275 262 276
329 328 331 334 342 356 351 350 348 342 331 304 280 46 15 309 338 329 300 300 294 296 255 273 284 298 303 302 304 295 301 315 309 298 280 207 266 273 272 277 278 277 283 270 266 270 267
324 326 329 337 351 353 350 346 346 346 329 273 330 345 347 291 283 281 291 302 314 329 327 309 293 310 308 281 281 291 295 296 293 298 300 240 275 289 288 279 267 263 262 257 259 268 273
322 324 334 349 348 349 348 343 341 345 340 349 14 324 311 299 292 288 336 317 312 327 295 294 318 306 288 293 303 296 284 274 267 241 270 261 282 288 280 276 286 269 271 266 261 262 261
324 336 342 345 345 344 344 342 341 344 344 334 338 262 288 294 325 316 319 298 283 295 283 288 287 284 299 307 295 279 263 257 270 251 215 229 237 243 267 300 264 284 356 351 327 312 290
335 340 340 339 338 342 338 338 334 341 336 302 270 256 253 284 322 291 278 322 294 293 284 284 290 297 312 309 297 305 19 212 211 226 190 195 231 262 257 241 279 291 326 334 306 280 293
335 335 334 335 338 337 340 339 337 336 342 295 279 229 204 300 236 341 312 297 317 298 293 276 334 321 297 281 292 280 307 322 334 325 131 165 206 255 283 262 274 17 71 6 299 271 33
329 330 330 334 335 335 335 331 329 325 327 305 272 259 261 260 271 287 292 325 308 293 278 298 334 305 254 255 268 285 312 340 321 321 297 305 223 232 249 252 265 49 357 333 237 351 342
325 326 326 328 326 328 327 326 323 315 317 304 282 271 239 269 282 275 271 279 278 249 257 328 306 18 288 262 322 337 314 310 303 284 288 268 289 306 290 266 358 344 351 236 320 310 308
320 322 321 323 320 322 318 316 313 308 308 307 280 276 234 257 276 298 283 272 259 256 247 216 295 318 297 312 349 330 313 294 314 294 328 300 203 263 207 290 302 315 294 290 277 273 284